OZ7MKS Weather Reports


time (UTC)temp
F
wind
direction
speed
knots
gust
knots
rain 1hr
in
rain 24hr
in
rain mn
in
humidity
%
barometer
mb
20260507204003 51 279 0.0 0.9 0.00 0.00 0.00 80 1019.4
20260507203504 51 279 0.0 0.0 0.00 0.00 0.00 80 1019.3
20260507202503 51 279 0.0 0.9 0.00 0.00 0.00 80 1019.3
20260507201504 52 279 0.0 0.9 0.00 0.00 0.00 79 1019.2
20260507201003 52 279 0.0 0.0 0.00 0.00 0.00 79 1019.2
20260507200504 52 279 0.0 0.0 0.00 0.00 0.00 78 1019.3
20260507200004 52 279 0.0 1.7 0.00 0.00 0.00 78 1019.3
20260507195503 52 279 0.9 1.7 0.00 0.00 0.00 77 1019.2
20260507195003 52 279 0.9 2.6 0.00 0.00 0.00 77 1019.1
20260507194504 53 279 0.9 2.6 0.00 0.00 0.00 77 1019.1
20260507194004 53 279 0.0 1.7 0.00 0.00 0.00 77 1019.0
20260507193503 53 279 0.0 0.0 0.00 0.00 0.00 76 1018.9
20260507193004 53 279 0.0 0.0 0.00 0.00 0.00 75 1018.9
20260507191503 54 279 0.0 0.9 0.00 0.00 0.00 74 1018.8
20260507191004 54 279 0.0 0.9 0.00 0.00 0.00 73 1018.8
20260507190504 54 279 0.0 1.7 0.00 0.00 0.00 73 1018.7
20260507190004 55 279 1.7 2.6 0.00 0.00 0.00 71 1018.6
20260507185004 55 281 2.6 5.2 0.00 0.00 0.00 70 1018.5
20260507184504 55 272 1.7 2.6 0.00 0.00 0.00 70 1018.5
20260507184004 55 271 1.7 2.6 0.00 0.00 0.00 71 1018.4
20260507183503 55 269 0.0 2.6 0.00 0.00 0.00 71 1018.4
20260507183003 55 269 1.7 2.6 0.00 0.00 0.00 70 1018.4
20260507182504 56 275 0.9 2.6 0.00 0.00 0.00 70 1018.4
20260507182004 56 276 1.7 2.6 0.00 0.00 0.00 69 1018.4
20260507181504 56 277 1.7 5.2 0.00 0.00 0.00 69 1018.3
20260507181003 56 269 1.7 5.2 0.00 0.00 0.00 69 1018.2
20260507180504 56 283 1.7 6.1 0.00 0.00 0.00 69 1018.2
20260507180004 56 258 1.7 2.6 0.00 0.00 0.00 69 1018.2
20260507175504 56 272 2.6 5.2 0.00 0.00 0.00 68 1018.1
20260507175004 56 267 1.7 6.1 0.00 0.00 0.00 67 1018.1
20260507174503 56 264 3.5 7.0 0.00 0.00 0.00 67 1018.1
20260507174003 57 271 1.7 5.2 0.00 0.00 0.00 67 1018.0
20260507173503 57 272 1.7 2.6 0.00 0.00 0.00 68 1018.0
20260507173004 57 263 1.7 6.1 0.00 0.00 0.00 68 1018.0
20260507172004 57 281 2.6 5.2 0.00 0.00 0.00 67 1017.8
20260507171503 57 249 2.6 5.2 0.00 0.00 0.00 65 1017.8
20260507171004 57 264 2.6 6.1 0.00 0.00 0.00 66 1017.8
20260507170503 57 267 1.7 5.2 0.00 0.00 0.00 67 1017.8
20260507165504 57 269 3.5 7.0 0.00 0.00 0.00 67 1017.7
20260507165004 57 262 5.2 8.7 0.00 0.00 0.00 66 1017.7
20260507164503 58 269 4.3 7.0 0.00 0.00 0.00 66 1017.7
20260507164004 58 273 3.5 8.7 0.00 0.00 0.00 67 1017.6
20260507163504 58 274 6.1 10.4 0.00 0.00 0.00 66 1017.7
20260507163003 59 265 3.5 7.0 0.00 0.00 0.00 65 1017.6
20260507162504 59 269 5.2 11.3 0.00 0.00 0.00 65 1017.6
20260507162003 60 268 5.2 10.4 0.00 0.00 0.00 64 1017.6
20260507161504 61 276 4.3 8.7 0.00 0.00 0.00 64 1017.5
20260507161004 61 255 6.1 10.4 0.00 0.00 0.00 63 1017.5
20260507160504 61 244 5.2 10.4 0.00 0.00 0.00 63 1017.5
20260507160004 62 282 4.3 10.4 0.00 0.00 0.00 63 1017.4
20260507155004 62 281 4.3 11.3 0.00 0.00 0.00 62 1017.4
20260507154504 62 263 5.2 11.3 0.00 0.00 0.00 63 1017.3
20260507154004 62 247 4.3 10.4 0.00 0.00 0.00 61 1017.4
20260507153504 62 293 4.3 8.7 0.00 0.00 0.00 61 1017.3
20260507153004 62 269 5.2 8.7 0.00 0.00 0.00 61 1017.3
20260507152504 62 283 1.7 6.1 0.00 0.00 0.00 62 1017.2
20260507152003 62 322 1.7 7.0 0.00 0.00 0.00 59 1017.2
20260507151004 61 346 2.6 5.2 0.00 0.00 0.00 60 1017.2
20260507150504 61 269 1.7 5.2 0.00 0.00 0.00 61 1017.2
20260507150004 61 276 1.7 6.1 0.00 0.00 0.00 60 1017.2
20260507145504 61 271 0.9 6.1 0.00 0.00 0.00 62 1017.2
20260507145004 61 264 5.2 10.4 0.00 0.00 0.00 60 1017.2
20260507144504 62 268 3.5 10.4 0.00 0.00 0.00 59 1017.2
20260507144003 63 246 4.3 7.0 0.00 0.00 0.00 55 1017.2
20260507143503 63 270 2.6 7.8 0.00 0.00 0.00 58 1017.2
20260507142504 63 320 1.7 2.6 0.00 0.00 0.00 56 1017.2
20260507142004 64 290 2.6 6.1 0.00 0.00 0.00 56 1017.1
20260507141503 63 201 1.7 5.2 0.00 0.00 0.00 56 1017.1
20260507141004 63 189 4.3 7.0 0.00 0.00 0.00 57 1017.1
20260507140504 62 248 0.9 4.3 0.00 0.00 0.00 58 1017.1
20260507140004 61 263 1.7 7.0 0.00 0.00 0.00 57 1017.1
20260507135504 62 260 0.9 5.2 0.00 0.00 0.00 57 1017.1
20260507135004 62 244 2.6 6.1 0.00 0.00 0.00 55 1017.2
20260507134503 62 259 2.6 7.8 0.00 0.00 0.00 57 1017.1
20260507133504 62 262 1.7 5.2 0.00 0.00 0.00 57 1017.2
20260507133003 62 233 2.6 5.2 0.00 0.00 0.00 56 1017.2
20260507132504 62 51 1.7 2.6 0.00 0.00 0.00 57 1017.1
20260507132004 63 66 1.7 6.1 0.00 0.00 0.00 56 1017.2
20260507131503 63 265 1.7 6.1 0.00 0.00 0.00 56 1017.1
20260507131003 63 71 1.7 2.6 0.00 0.00 0.00 58 1017.1
20260507130503 63 84 1.7 2.6 0.00 0.00 0.00 59 1017.0
20260507130004 62 22 2.6 5.2 0.00 0.00 0.00 58 1017.1
20260507125004 62 84 0.9 2.6 0.00 0.00 0.00 57 1017.1
20260507124504 61 54 1.7 2.6 0.00 0.00 0.00 58 1017.1
20260507124004 61 276 1.7 6.1 0.00 0.00 0.00 57 1017.1
20260507123504 62 276 1.7 4.3 0.00 0.00 0.00 56 1017.1
20260507122503 61 224 1.7 4.3 0.00 0.00 0.00 56 1017.0
20260507122004 61 336 2.6 7.0 0.00 0.00 0.00 56 1017.1
20260507121004 62 273 1.7 6.1 0.00 0.00 0.00 55 1017.0
20260507120504 62 328 0.9 2.6 0.00 0.00 0.00 57 1017.0
20260507115503 62 174 0.9 5.2 0.00 0.00 0.00 57 1017.0
20260507115004 62 196 2.6 5.2 0.00 0.00 0.00 54 1017.0
20260507114504 62 90 2.6 6.1 0.00 0.00 0.00 55 1017.0
20260507114004 62 60 1.7 6.1 0.00 0.00 0.00 57 1017.0
20260507113503 61 82 3.5 7.0 0.00 0.00 0.00 57 1017.1
20260507113004 61 53 1.7 6.1 0.00 0.00 0.00 58 1017.2
20260507112504 61 55 2.6 7.0 0.00 0.00 0.00 57 1017.2
20260507112004 61 337 1.7 5.2 0.00 0.00 0.00 56 1017.2
20260507111504 61 28 1.7 2.6 0.00 0.00 0.00 58 1017.2
20260507110503 60 36 2.6 5.2 0.00 0.00 0.00 59 1017.2
20260507110004 59 95 2.6 5.2 0.00 0.00 0.00 59 1017.2
20260507105504 58 37 2.6 5.2 0.00 0.00 0.00 61 1017.2
20260507105004 57 55 0.9 2.6 0.00 0.00 0.00 58 1017.3
20260507104004 57 323 1.7 2.6 0.00 0.00 0.00 57 1017.3
20260507103504 57 327 1.7 2.6 0.00 0.00 0.00 60 1017.2
20260507103003 58 17 1.7 4.3 0.00 0.00 0.00 58 1017.2
20260507102504 58 6 1.7 2.6 0.00 0.00 0.00 56 1017.2
20260507102006 58 109 0.9 2.6 0.00 0.00 0.00 57 1017.2
20260507101504 58 111 2.6 5.2 0.00 0.00 0.00 57 1017.1
20260507101004 58 23 1.7 7.0 0.00 0.00 0.00 53 1017.1
20260507100503 58 68 2.6 5.2 0.00 0.00 0.00 57 1017.1
20260507100003 58 61 2.6 7.0 0.00 0.00 0.00 55 1017.0
20260507095504 58 43 3.5 6.1 0.00 0.00 0.00 56 1017.0
20260507095004 58 112 2.6 6.1 0.00 0.00 0.00 57 1016.9
20260507094503 58 51 2.6 4.3 0.00 0.00 0.00 59 1016.9
20260507094004 58 71 2.6 4.3 0.00 0.00 0.00 60 1016.9
20260507093004 58 44 1.7 5.2 0.00 0.00 0.00 58 1016.9
20260507092503 57 24 1.7 5.2 0.00 0.00 0.00 61 1016.8
20260507092004 57 83 1.7 6.1 0.00 0.00 0.00 60 1016.8
20260507091504 56 91 2.6 2.6 0.00 0.00 0.00 62 1016.8
20260507091004 56 83 2.6 2.6 0.00 0.00 0.00 64 1016.8
20260507090503 55 103 1.7 2.6 0.00 0.00 0.00 64 1016.8
20260507090004 54 257 0.9 2.6 0.00 0.00 0.00 64 1016.8
20260507085504 53 257 1.7 2.6 0.00 0.00 0.00 62 1016.8
20260507085004 53 256 0.9 2.6 0.00 0.00 0.00 60 1016.8
20260507084503 53 256 0.9 2.6 0.00 0.00 0.00 61 1016.9
20260507084004 53 256 1.7 2.6 0.00 0.00 0.00 64 1016.9
20260507083504 53 255 1.7 4.3 0.00 0.00 0.00 64 1016.8
20260507083004 54 227 0.9 2.6 0.00 0.00 0.00 62 1016.8
20260507082504 54 139 0.9 1.7 0.00 0.00 0.00 59 1016.9
20260507082003 54 136 0.0 2.6 0.00 0.00 0.00 60 1016.8
20260507081504 54 136 1.7 2.6 0.00 0.00 0.00 64 1016.8
20260507081004 54 141 0.9 2.6 0.00 0.00 0.00 62 1016.8
20260507080003 53 54 0.9 1.7 0.00 0.00 0.00 63 1016.8
20260507075503 53 53 0.9 2.6 0.00 0.00 0.00 65 1016.7
20260507075003 53 82 0.9 2.6 0.00 0.00 0.00 66 1016.7
20260507074503 52 69 0.9 1.7 0.00 0.00 0.00 66 1016.6
20260507073504 52 69 0.9 2.6 0.00 0.00 0.00 65 1016.5
20260507073004 52 69 0.9 2.6 0.00 0.00 0.00 65 1016.5
20260507072504 52 71 0.9 2.6 0.00 0.00 0.00 63 1016.5
20260507072004 53 71 1.7 4.3 0.00 0.00 0.00 66 1016.5
20260507071504 52 82 1.7 2.6 0.00 0.00 0.00 66 1016.4
20260507071004 52 102 1.7 5.2 0.00 0.00 0.00 69 1016.4
20260507070007 51 88 1.7 2.6 0.00 0.00 0.00 70 1016.4
20260507065503 50 77 0.0 1.7 0.00 0.00 0.00 72 1016.3
20260507065004 49 77 0.9 2.6 0.00 0.00 0.00 72 1016.3
20260507064504 49 77 0.0 1.7 0.00 0.00 0.00 72 1016.3
20260507064004 49 76 1.7 2.6 0.00 0.00 0.00 74 1016.2
20260507063504 48 344 0.0 0.0 0.00 0.00 0.00 75 1016.3
20260507063003 48 344 0.0 0.9 0.00 0.00 0.00 75 1016.3
20260507062504 48 344 0.9 2.6 0.00 0.00 0.00 74 1016.2
20260507062003 47 344 0.9 1.7 0.00 0.00 0.00 76 1016.2
20260507061504 47 340 0.0 0.0 0.00 0.00 0.00 76 1016.1
20260507061004 46 340 0.0 0.0 0.00 0.00 0.00 77 1016.2
20260507060504 46 340 0.0 0.0 0.00 0.00 0.00 78 1016.1
20260507060003 46 340 0.0 0.0 0.00 0.00 0.00 81 1016.1
20260507055505 45 340 0.0 0.0 0.00 0.00 0.00 82 1016.1
20260507055004 44 340 0.0 0.0 0.00 0.00 0.00 82 1016.1
20260507054503 44 340 0.0 0.0 0.00 0.00 0.00 85 1016.0
20260507053503 42 340 0.0 0.0 0.00 0.00 0.00 86 1015.9
20260507053004 42 340 0.0 0.0 0.00 0.00 0.00 87 1015.8
20260507052503 42 340 0.0 0.0 0.00 0.00 0.00 87 1015.8
20260507052004 42 340 0.0 0.0 0.00 0.00 0.00 88 1015.8
20260507051504 42 340 0.0 0.0 0.00 0.00 0.00 89 1015.7
20260507051004 41 340 0.0 0.0 0.00 0.00 0.00 91 1015.7
20260507050005 40 340 0.0 0.0 0.00 0.00 0.00 91 1015.6
20260507045504 39 340 0.0 0.0 0.00 0.00 0.00 92 1015.6
20260507045004 38 340 0.0 0.0 0.00 0.00 0.00 91 1015.6
20260507044004 37 340 0.0 0.0 0.00 0.00 0.00 91 1015.5
20260507043004 37 340 0.0 0.0 0.00 0.00 0.00 91 1015.3
20260507042503 36 340 0.0 0.0 0.00 0.00 0.00 90 1015.3
20260507042004 36 340 0.0 0.0 0.00 0.00 0.00 90 1015.2
20260507041503 36 340 0.0 0.0 0.00 0.00 0.00 90 1015.2
20260507041003 35 340 0.0 0.0 0.00 0.00 0.00 90 1015.2
20260507040504 35 340 0.0 0.0 0.00 0.00 0.00 89 1015.1
20260507035004 35 340 0.0 0.0 0.00 0.00 0.00 89 1015.1
20260507034003 35 340 0.0 0.0 0.00 0.00 0.00 88 1015.0
20260507033504 36 340 0.0 0.0 0.00 0.00 0.00 88 1014.9
20260507033003 36 340 0.0 0.0 0.00 0.00 0.00 89 1015.0
20260507032504 36 340 0.0 0.0 0.00 0.00 0.00 89 1015.0
20260507032004 36 340 0.0 0.0 0.00 0.00 0.00 89 1015.0
20260507031504 36 340 0.0 0.0 0.00 0.00 0.00 89 1014.9
20260507030504 36 340 0.0 0.0 0.00 0.00 0.00 88 1014.9
20260507030004 36 340 0.0 0.0 0.00 0.00 0.00 89 1014.9
20260507025504 36 340 0.0 0.0 0.00 0.00 0.00 89 1014.9
20260507025004 36 340 0.0 0.0 0.00 0.00 0.00 89 1014.9
20260507024504 36 340 0.0 0.0 0.00 0.00 0.00 89 1014.9
20260507024004 36 340 0.0 0.0 0.00 0.00 0.00 89 1014.8
20260507023504 36 340 0.0 0.0 0.00 0.00 0.00 89 1014.8
20260507023004 36 340 0.0 0.0 0.00 0.00 0.00 89 1014.9
20260507022503 36 340 0.0 0.0 0.00 0.00 0.00 88 1014.9
20260507022003 36 340 0.0 0.0 0.00 0.00 0.00 88 1014.8
20260507021504 36 340 0.0 0.0 0.00 0.00 0.00 88 1014.7
20260507021004 36 340 0.0 0.0 0.00 0.00 0.00 88 1014.7
20260507020504 36 340 0.0 0.0 0.00 0.00 0.00 88 1014.7
20260507015504 36 340 0.0 0.0 0.00 0.00 0.00 88 1014.7
20260507015004 36 340 0.0 0.0 0.00 0.00 0.00 88 1014.7
20260507014504 36 340 0.0 0.0 0.00 0.00 0.00 88 1014.7
20260507014004 37 340 0.0 0.0 0.00 0.00 0.00 88 1014.6
20260507013503 37 340 0.0 0.0 0.00 0.00 0.00 87 1014.5
20260507013003 37 340 0.0 0.0 0.00 0.00 0.00 87 1014.5
20260507012504 37 340 0.0 0.0 0.00 0.00 0.00 87 1014.4
20260507012004 38 340 0.0 0.0 0.00 0.00 0.00 87 1014.5
20260507011503 38 340 0.0 0.0 0.00 0.00 0.00 87 1014.5
20260507011004 38 340 0.0 0.0 0.00 0.00 0.00 87 1014.4
20260507010504 38 340 0.0 0.0 0.00 0.00 0.00 86 1014.4
20260507010004 39 340 0.0 0.0 0.00 0.00 0.00 86 1014.4
20260507005504 39 340 0.0 0.0 0.00 0.00 0.00 86 1014.4
20260507005004 39 340 0.0 0.0 0.00 0.00 0.00 86 1014.4
20260507004503 39 340 0.0 0.0 0.00 0.00 0.00 86 1014.4
20260507004003 39 340 0.0 0.0 0.00 0.00 0.00 86 1014.4
20260507003504 39 340 0.0 0.0 0.00 0.00 0.00 86 1014.4
20260507002504 39 340 0.0 0.0 0.00 0.00 0.00 86 1014.5
20260507002003 39 340 0.0 0.0 0.00 0.00 0.00 86 1014.4
20260507001503 39 340 0.0 0.0 0.00 0.00 0.00 86 1014.4
20260507001003 39 340 0.0 0.0 0.00 0.00 0.00 85 1014.4
20260507000503 39 340 0.0 0.0 0.00 0.00 0.00 86 1014.4
20260507000004 39 340 0.0 0.0 0.00 0.00 0.00 85 1014.4
20260506235504 39 340 0.0 0.0 0.00 0.00 0.00 85 1014.4
20260506234504 39 340 0.0 0.0 0.00 0.00 0.00 85 1014.4
20260506234004 39 340 0.0 0.0 0.00 0.00 0.00 85 1014.5
20260506233503 39 340 0.0 0.0 0.00 0.00 0.00 85 1014.5
20260506233003 39 340 0.0 0.0 0.00 0.00 0.00 85 1014.5
20260506232004 38 340 0.0 0.9 0.00 0.00 0.00 85 1014.5
20260506231003 38 340 0.0 0.0 0.00 0.00 0.00 84 1014.4
20260506230503 38 340 0.0 0.0 0.00 0.00 0.00 84 1014.4
20260506230004 38 340 0.0 0.0 0.00 0.00 0.00 83 1014.5
20260506225504 38 340 0.0 0.0 0.00 0.00 0.00 83 1014.5
20260506224503 39 340 0.0 0.0 0.00 0.00 0.00 83 1014.4
20260506223504 39 340 0.9 1.7 0.00 0.00 0.00 83 1014.4
20260506222504 39 340 0.0 0.0 0.00 0.00 0.00 83 1014.3
20260506222004 39 340 0.9 1.7 0.00 0.00 0.00 83 1014.3
20260506221504 40 340 0.0 0.0 0.00 0.00 0.00 83 1014.3
20260506221003 40 340 0.0 1.7 0.00 0.00 0.00 83 1014.3
20260506220503 40 340 0.0 0.0 0.00 0.00 0.00 83 1014.3
20260506220004 40 340 0.0 0.0 0.00 0.00 0.00 83 1014.3
20260506215504 40 340 0.0 0.0 0.00 0.00 0.00 82 1014.2
20260506215004 40 340 0.0 0.0 0.00 0.00 0.00 82 1014.1
20260506214504 40 340 0.0 1.7 0.00 0.00 0.00 82 1014.1
20260506214003 40 340 0.9 1.7 0.00 0.00 0.00 82 1014.1
20260506213504 40 340 0.0 0.9 0.00 0.00 0.00 82 1014.0
20260506213004 40 340 0.0 0.9 0.00 0.00 0.00 82 1013.9
20260506212503 40 340 0.0 0.9 0.00 0.00 0.00 81 1014.0
20260506212003 40 340 0.0 0.9 0.00 0.00 0.00 81 1014.0
20260506211503 41 340 0.0 0.0 0.00 0.00 0.00 80 1013.9
20260506211003 41 340 0.0 0.0 0.00 0.00 0.00 81 1013.8
20260506210504 41 340 0.0 0.9 0.00 0.00 0.00 80 1013.8
20260506210004 41 340 0.9 2.6 0.00 0.00 0.00 80 1013.8
20260506205504 41 339 0.0 0.0 0.00 0.00 0.00 80 1013.8